| time (UTC) | temp F | wind direction | speed knots | gust knots | rain 1hr in | rain 24hr in | rain mn in | humidity % | barometer mb |
| 20260906113741 | 69 | 103 | 0.0 | 0.0 | 0.00 | 0.79 | 0.79 | 96 | 1011.2 |
| 20260906113239 | 69 | 103 | 0.0 | 0.0 | 0.00 | 0.79 | 0.79 | 96 | 1011.2 |
| 20260906112737 | 69 | 103 | 0.0 | 0.0 | 0.00 | 0.79 | 0.79 | 96 | 1011.2 |
| 20260906112236 | 69 | 103 | 0.0 | 0.0 | 0.00 | 0.79 | 0.79 | 96 | 1010.8 |
| 20260906111703 | 69 | 103 | 0.0 | 0.9 | 0.00 | 0.79 | 0.79 | 96 | 1010.8 |
| 20260906111202 | 69 | 103 | 0.0 | 0.9 | 0.00 | 0.79 | 0.79 | 96 | 1010.8 |
| 20260906110701 | 69 | 103 | 0.0 | 0.9 | 0.00 | 0.79 | 0.79 | 96 | 1010.8 |
| 20260906110128 | 69 | 103 | 0.0 | 0.0 | 0.00 | 0.79 | 0.79 | 96 | 1010.8 |
| 20260906105628 | 69 | 103 | 0.0 | 0.0 | 0.00 | 0.79 | 0.79 | 96 | 1010.8 |
| 20260906105055 | 69 | 103 | 0.0 | 0.0 | 0.00 | 0.79 | 0.79 | 96 | 1010.5 |
| 20260906104554 | 69 | 103 | 0.0 | 0.0 | 0.00 | 0.79 | 0.79 | 96 | 1010.5 |
| 20260906104053 | 69 | 103 | 0.0 | 0.9 | 0.00 | 0.79 | 0.79 | 96 | 1010.5 |
| 20260906103520 | 69 | 103 | 0.0 | 0.9 | 0.00 | 0.79 | 0.79 | 96 | 1010.2 |
| 20260906103019 | 69 | 103 | 0.0 | 1.7 | 0.00 | 0.79 | 0.79 | 96 | 1010.2 |
| 20260906102518 | 69 | 103 | 0.9 | 1.7 | 0.00 | 0.79 | 0.79 | 96 | 1010.2 |
| 20260906102017 | 69 | 111 | 0.9 | 1.7 | 0.00 | 0.79 | 0.79 | 96 | 1010.2 |
| 20260906101516 | 69 | 108 | 0.9 | 0.9 | 0.00 | 0.79 | 0.79 | 96 | 1010.2 |
| 20260906101015 | 69 | 109 | 0.0 | 0.9 | 0.00 | 0.79 | 0.79 | 96 | 1010.2 |
| 20260906100514 | 69 | 101 | 0.0 | 0.9 | 0.00 | 0.79 | 0.79 | 96 | 1010.2 |
| 20260906100013 | 69 | 101 | 0.0 | 0.9 | 0.00 | 0.79 | 0.79 | 96 | 1010.2 |
| 20260906095512 | 69 | 98 | 0.0 | 0.9 | 0.00 | 0.79 | 0.79 | 96 | 1010.2 |
| 20260906094940 | 69 | 101 | 0.9 | 0.9 | 0.00 | 0.79 | 0.79 | 96 | 1009.8 |
| 20260906094439 | 69 | 102 | 0.0 | 1.7 | 0.00 | 0.79 | 0.79 | 96 | 1009.8 |
| 20260906093907 | 69 | 102 | 0.9 | 1.7 | 0.00 | 0.79 | 0.79 | 96 | 1009.8 |
| 20260906093333 | 69 | 115 | 0.0 | 0.9 | 0.00 | 0.79 | 0.79 | 96 | 1009.8 |
| 20260906092801 | 69 | 118 | 0.9 | 0.9 | 0.00 | 0.79 | 0.79 | 96 | 1009.8 |
| 20260906092259 | 69 | 112 | 0.9 | 0.9 | 0.00 | 0.79 | 0.79 | 96 | 1009.8 |
| 20260906091758 | 69 | 145 | 0.0 | 0.9 | 0.00 | 0.79 | 0.79 | 96 | 1009.8 |
| 20260906091257 | 69 | 145 | 0.0 | 0.9 | 0.00 | 0.79 | 0.79 | 96 | 1009.8 |
| 20260906090756 | 69 | 138 | 0.0 | 0.9 | 0.00 | 0.79 | 0.79 | 96 | 1009.8 |
| 20260906090255 | 69 | 137 | 0.9 | 0.9 | 0.00 | 0.79 | 0.79 | 96 | 1009.8 |
| 20260906085723 | 69 | 138 | 0.9 | 0.9 | 0.00 | 0.79 | 0.79 | 96 | 1009.8 |
| 20260906085222 | 70 | 138 | 0.0 | 0.9 | 0.00 | 0.79 | 0.79 | 96 | 1009.8 |
| 20260906084720 | 70 | 137 | 0.0 | 0.9 | 0.00 | 0.79 | 0.79 | 96 | 1009.8 |
| 20260906084219 | 70 | 137 | 0.9 | 0.9 | 0.00 | 0.79 | 0.79 | 96 | 1010.2 |
| 20260906083718 | 70 | 136 | 0.0 | 1.7 | 0.01 | 0.79 | 0.79 | 96 | 1010.2 |
| 20260906083217 | 70 | 137 | 0.9 | 1.7 | 0.01 | 0.79 | 0.79 | 96 | 1010.2 |
| 20260906082716 | 70 | 142 | 0.9 | 1.7 | 0.02 | 0.79 | 0.79 | 96 | 1010.5 |
| 20260906082215 | 70 | 129 | 0.9 | 1.7 | 0.03 | 0.79 | 0.79 | 96 | 1010.5 |
| 20260906081713 | 70 | 141 | 0.9 | 1.7 | 0.04 | 0.79 | 0.79 | 96 | 1010.5 |
| 20260906081212 | 70 | 105 | 0.9 | 1.7 | 0.08 | 0.79 | 0.79 | 96 | 1010.5 |
| 20260906080711 | 70 | 104 | 0.9 | 2.6 | 0.12 | 0.79 | 0.79 | 96 | 1010.2 |
| 20260906080210 | 71 | 131 | 0.0 | 4.3 | 0.13 | 0.79 | 0.79 | 96 | 1010.2 |
| 20260906075709 | 71 | 211 | 0.9 | 4.3 | 0.13 | 0.79 | 0.79 | 96 | 1010.2 |
| 20260906075207 | 71 | 231 | 0.9 | 4.3 | 0.13 | 0.79 | 0.79 | 96 | 1010.2 |
| 20260906074706 | 72 | 200 | 2.6 | 4.3 | 0.13 | 0.79 | 0.79 | 96 | 1010.5 |
| 20260906074205 | 72 | 187 | 0.0 | 0.9 | 0.13 | 0.79 | 0.79 | 96 | 1010.5 |
| 20260906073704 | 72 | 176 | 0.0 | 0.9 | 0.12 | 0.78 | 0.78 | 96 | 1011.2 |
| 20260906073203 | 72 | 176 | 0.0 | 0.9 | 0.11 | 0.77 | 0.77 | 96 | 1011.2 |
| 20260906072701 | 73 | 146 | 0.0 | 0.9 | 0.11 | 0.77 | 0.77 | 96 | 1011.2 |
| 20260906072200 | 74 | 180 | 0.0 | 0.0 | 0.10 | 0.76 | 0.76 | 96 | 1011.5 |
| 20260906071659 | 74 | 181 | 0.0 | 0.0 | 0.09 | 0.75 | 0.75 | 96 | 1011.5 |
| 20260906071126 | 74 | 184 | 0.0 | 0.0 | 0.05 | 0.71 | 0.71 | 96 | 1010.8 |
| 20260906070625 | 74 | 162 | 0.0 | 0.0 | 0.01 | 0.67 | 0.67 | 96 | 1010.8 |
| 20260906070051 | 73 | 166 | 0.0 | 0.0 | 0.00 | 0.66 | 0.66 | 96 | 1010.8 |
| 20260906065550 | 73 | 161 | 0.0 | 0.0 | 0.00 | 0.66 | 0.66 | 96 | 1010.8 |
| 20260906065049 | 73 | 105 | 0.0 | 0.0 | 0.00 | 0.66 | 0.66 | 96 | 1010.5 |
| 20260906064549 | 73 | 113 | 0.0 | 0.0 | 0.00 | 0.66 | 0.66 | 96 | 1010.2 |
| 20260906064015 | 73 | 113 | 0.0 | 0.0 | 0.00 | 0.66 | 0.66 | 96 | 1010.2 |
| 20260906063514 | 73 | 113 | 0.0 | 0.0 | 0.00 | 0.66 | 0.66 | 96 | 1010.2 |
| 20260906062941 | 73 | 113 | 0.0 | 0.0 | 0.00 | 0.66 | 0.66 | 96 | 1010.2 |
| 20260906062440 | 73 | 113 | 0.0 | 0.9 | 0.00 | 0.66 | 0.66 | 96 | 1010.2 |
| 20260906061939 | 73 | 113 | 0.0 | 0.9 | 0.00 | 0.66 | 0.66 | 96 | 1010.2 |
| 20260906061438 | 73 | 113 | 0.0 | 0.9 | 0.00 | 0.66 | 0.66 | 96 | 1010.2 |
| 20260906060937 | 73 | 110 | 0.9 | 0.9 | 0.00 | 0.66 | 0.66 | 96 | 1010.2 |
| 20260906060436 | 73 | 120 | 0.0 | 0.0 | 0.00 | 0.66 | 0.66 | 96 | 1010.5 |
| 20260906055935 | 73 | 118 | 0.0 | 0.0 | 0.00 | 0.66 | 0.66 | 96 | 1010.5 |
| 20260906055434 | 73 | 118 | 0.0 | 0.0 | 0.00 | 0.66 | 0.66 | 96 | 1010.2 |
| 20260906054933 | 73 | 119 | 0.0 | 0.0 | 0.00 | 0.66 | 0.66 | 96 | 1010.2 |
| 20260906054432 | 73 | 118 | 0.0 | 0.0 | 0.00 | 0.66 | 0.66 | 96 | 1010.2 |
| 20260906053858 | 73 | 118 | 0.0 | 0.0 | 0.00 | 0.66 | 0.66 | 96 | 1010.5 |
| 20260906053357 | 73 | 118 | 0.0 | 0.0 | 0.00 | 0.66 | 0.66 | 96 | 1010.5 |
| 20260906052856 | 73 | 118 | 0.0 | 0.0 | 0.00 | 0.66 | 0.66 | 96 | 1010.8 |
| 20260906052355 | 73 | 118 | 0.0 | 0.0 | 0.00 | 0.66 | 0.66 | 96 | 1010.8 |
| 20260906051854 | 73 | 119 | 0.0 | 0.0 | 0.00 | 0.66 | 0.66 | 96 | 1010.8 |
| 20260906051353 | 73 | 118 | 0.0 | 0.0 | 0.00 | 0.66 | 0.66 | 96 | 1010.5 |
| 20260906050820 | 73 | 118 | 0.0 | 0.0 | 0.00 | 0.66 | 0.66 | 96 | 1010.5 |
| 20260906050319 | 73 | 118 | 0.0 | 0.0 | 0.00 | 0.66 | 0.66 | 96 | 1010.5 |
| 20260906045818 | 73 | 118 | 0.0 | 0.0 | 0.00 | 0.66 | 0.66 | 96 | 1010.8 |
| 20260906045316 | 72 | 118 | 0.0 | 0.0 | 0.00 | 0.66 | 0.66 | 96 | 1010.8 |
| 20260906044815 | 72 | 118 | 0.0 | 0.0 | 0.00 | 0.66 | 0.66 | 96 | 1010.8 |
| 20260906044243 | 72 | 115 | 0.0 | 0.0 | 0.00 | 0.66 | 0.66 | 96 | 1010.8 |
| 20260906043711 | 72 | 115 | 0.0 | 0.0 | 0.00 | 0.66 | 0.66 | 96 | 1010.8 |
| 20260906043210 | 72 | 115 | 0.0 | 0.0 | 0.00 | 0.66 | 0.66 | 96 | 1011.2 |
| 20260906042637 | 72 | 115 | 0.0 | 0.0 | 0.00 | 0.66 | 0.66 | 96 | 1011.2 |
| 20260906042136 | 72 | 115 | 0.0 | 0.0 | 0.00 | 0.66 | 0.66 | 96 | 1011.2 |
| 20260906041635 | 72 | 115 | 0.0 | 0.0 | 0.00 | 0.66 | 0.66 | 96 | 1011.2 |
| 20260906041133 | 72 | 116 | 0.0 | 0.0 | 0.00 | 0.66 | 0.66 | 96 | 1010.8 |
| 20260906040631 | 72 | 115 | 0.0 | 0.0 | 0.00 | 0.66 | 0.66 | 96 | 1011.2 |
| 20260906040129 | 72 | 115 | 0.0 | 0.0 | 0.00 | 0.66 | 0.66 | 96 | 1011.2 |
| 20260906035628 | 72 | 115 | 0.0 | 0.0 | 0.00 | 0.66 | 0.66 | 96 | 1011.2 |
| 20260906035127 | 72 | 115 | 0.0 | 0.0 | 0.00 | 0.66 | 0.66 | 96 | 1010.8 |
| 20260906034626 | 73 | 115 | 0.0 | 0.0 | 0.00 | 0.66 | 0.66 | 96 | 1010.8 |
| 20260906034125 | 72 | 115 | 0.0 | 0.0 | 0.00 | 0.66 | 0.66 | 96 | 1011.2 |
| 20260906033553 | 73 | 115 | 0.0 | 0.0 | 0.00 | 0.66 | 0.66 | 96 | 1011.2 |
| 20260906033051 | 73 | 115 | 0.0 | 0.0 | 0.00 | 0.66 | 0.66 | 96 | 1011.2 |
| 20260906032550 | 72 | 115 | 0.0 | 0.0 | 0.00 | 0.66 | 0.66 | 96 | 1011.2 |
| 20260906032049 | 72 | 115 | 0.0 | 0.0 | 0.00 | 0.66 | 0.66 | 96 | 1011.2 |
| 20260906031517 | 72 | 115 | 0.0 | 0.0 | 0.00 | 0.66 | 0.66 | 96 | 1011.2 |
| 20260906030944 | 72 | 113 | 0.0 | 0.0 | 0.00 | 0.66 | 0.66 | 96 | 1011.2 |
| 20260906030442 | 72 | 113 | 0.0 | 0.0 | 0.00 | 0.66 | 0.66 | 96 | 1011.2 |
| 20260906025941 | 72 | 113 | 0.0 | 0.0 | 0.00 | 0.66 | 0.66 | 96 | 1010.8 |
| 20260906025440 | 72 | 113 | 0.0 | 0.0 | 0.00 | 0.66 | 0.66 | 96 | 1010.8 |
| 20260906024938 | 72 | 113 | 0.0 | 0.0 | 0.00 | 0.66 | 0.66 | 96 | 1010.8 |
| 20260906024333 | 72 | 113 | 0.0 | 0.0 | 0.00 | 0.66 | 0.66 | 96 | 1010.8 |
| 20260906023800 | 72 | 113 | 0.0 | 0.0 | 0.00 | 0.66 | 0.66 | 96 | 1010.5 |
| 20260906023259 | 72 | 113 | 0.0 | 0.0 | 0.00 | 0.66 | 0.66 | 96 | 1010.5 |
| 20260906022756 | 72 | 113 | 0.0 | 0.0 | 0.00 | 0.66 | 0.66 | 96 | 1010.5 |
| 20260906022255 | 73 | 113 | 0.0 | 0.0 | 0.00 | 0.66 | 0.66 | 96 | 1010.5 |
| 20260906021722 | 73 | 113 | 0.0 | 0.0 | 0.00 | 0.66 | 0.66 | 95 | 1010.2 |
| 20260906021149 | 73 | 113 | 0.0 | 0.0 | 0.00 | 0.66 | 0.66 | 95 | 1010.2 |
| 20260906020648 | 73 | 113 | 0.0 | 0.0 | 0.00 | 0.66 | 0.66 | 95 | 1010.2 |
| 20260906020147 | 73 | 113 | 0.0 | 0.0 | 0.00 | 0.66 | 0.66 | 95 | 1010.2 |
| 20260906015645 | 73 | 113 | 0.0 | 0.0 | 0.00 | 0.66 | 0.66 | 95 | 1010.2 |
| 20260906015144 | 73 | 113 | 0.0 | 0.0 | 0.00 | 0.66 | 0.66 | 95 | 1010.2 |
| 20260906014643 | 73 | 113 | 0.0 | 0.0 | 0.00 | 0.66 | 0.66 | 95 | 1010.2 |
| 20260906014142 | 73 | 111 | 0.0 | 0.0 | 0.00 | 0.66 | 0.66 | 95 | 1010.2 |
| 20260906013642 | 73 | 111 | 0.0 | 0.0 | 0.00 | 0.66 | 0.66 | 95 | 1009.8 |
| 20260906013141 | 73 | 111 | 0.0 | 0.0 | 0.00 | 0.66 | 0.66 | 95 | 1009.8 |
| 20260906012640 | 73 | 111 | 0.0 | 0.0 | 0.00 | 0.66 | 0.66 | 95 | 1009.8 |
| 20260906012138 | 73 | 112 | 0.0 | 0.0 | 0.00 | 0.66 | 0.66 | 95 | 1009.8 |
| 20260906011637 | 73 | 112 | 0.0 | 0.0 | 0.00 | 0.66 | 0.66 | 95 | 1009.8 |
| 20260906011136 | 73 | 111 | 0.0 | 0.0 | 0.00 | 0.66 | 0.66 | 95 | 1010.2 |
| 20260906010635 | 73 | 111 | 0.0 | 0.0 | 0.00 | 0.66 | 0.66 | 95 | 1010.2 |
| 20260906010134 | 73 | 111 | 0.0 | 0.0 | 0.00 | 0.66 | 0.66 | 95 | 1010.2 |
| 20260906005601 | 73 | 105 | 0.0 | 0.0 | 0.00 | 0.66 | 0.66 | 95 | 1010.2 |
| 20260906005100 | 73 | 103 | 0.0 | 0.0 | 0.00 | 0.66 | 0.66 | 95 | 1010.2 |
| 20260906004559 | 73 | 100 | 0.0 | 0.0 | 0.00 | 0.66 | 0.66 | 95 | 1010.2 |
| 20260906004028 | 74 | 100 | 0.0 | 0.0 | 0.00 | 0.66 | 0.66 | 95 | 1010.2 |
| 20260906003527 | 74 | 100 | 0.0 | 0.0 | 0.00 | 0.66 | 0.66 | 95 | 1009.8 |
| 20260906003025 | 74 | 100 | 0.0 | 0.0 | 0.00 | 0.66 | 0.66 | 95 | 1010.2 |
| 20260906002453 | 74 | 100 | 0.0 | 0.0 | 0.00 | 0.66 | 0.66 | 95 | 1010.2 |
| 20260906001952 | 74 | 100 | 0.0 | 0.0 | 0.00 | 0.66 | 0.66 | 95 | 1010.2 |
| 20260906001451 | 74 | 101 | 0.0 | 0.0 | 0.00 | 0.66 | 0.66 | 95 | 1010.2 |
| 20260906000950 | 74 | 98 | 0.0 | 0.0 | 0.00 | 0.66 | 0.66 | 95 | 1010.2 |
| 20260906000448 | 75 | 99 | 0.0 | 0.0 | 0.00 | 0.66 | 0.66 | 95 | 1010.2 |
| 20260905235946 | 75 | 99 | 0.0 | 0.0 | 0.00 | 0.66 | 0.66 | 95 | 1010.2 |
| 20260905235445 | 75 | 98 | 0.0 | 0.9 | 0.00 | 0.66 | 0.66 | 95 | 1010.2 |
| 20260905234944 | 76 | 99 | 0.0 | 0.9 | 0.00 | 0.66 | 0.66 | 95 | 1010.2 |
| 20260905234443 | 76 | 98 | 0.0 | 0.9 | 0.00 | 0.66 | 0.66 | 95 | 1010.2 |
| 20260905233942 | 76 | 219 | 0.0 | 0.9 | 0.00 | 0.66 | 0.66 | 95 | 1010.2 |
| 20260905233441 | 76 | 215 | 0.0 | 0.0 | 0.00 | 0.66 | 0.66 | 95 | 1010.2 |
| 20260905232940 | 76 | 215 | 0.0 | 0.0 | 0.00 | 0.66 | 0.66 | 95 | 1009.8 |
| 20260905232439 | 76 | 215 | 0.0 | 0.0 | 0.00 | 0.66 | 0.66 | 95 | 1009.8 |
| 20260905231938 | 76 | 215 | 0.0 | 0.9 | 0.00 | 0.66 | 0.66 | 95 | 1009.8 |
| 20260905231406 | 76 | 216 | 0.0 | 0.9 | 0.00 | 0.66 | 0.66 | 95 | 1009.8 |
| 20260905230905 | 76 | 215 | 0.0 | 0.9 | 0.00 | 0.66 | 0.66 | 95 | 1009.8 |
| 20260905230403 | 76 | 215 | 0.0 | 0.9 | 0.00 | 0.66 | 0.66 | 95 | 1009.8 |
| 20260905225902 | 76 | 224 | 0.9 | 0.9 | 0.00 | 0.66 | 0.66 | 95 | 1009.8 |
| 20260905225330 | 76 | 82 | 0.0 | 0.0 | 0.00 | 0.66 | 0.66 | 95 | 1009.8 |
| 20260905224829 | 77 | 82 | 0.0 | 0.0 | 0.00 | 0.66 | 0.66 | 95 | 1009.5 |
| 20260905224329 | 77 | 82 | 0.0 | 0.0 | 0.00 | 0.66 | 0.66 | 95 | 1009.8 |
| 20260905223826 | 77 | 82 | 0.0 | 0.0 | 0.00 | 0.66 | 0.66 | 95 | 1009.8 |
| 20260905223254 | 76 | 82 | 0.0 | 0.9 | 0.00 | 0.66 | 0.66 | 95 | 1009.8 |
| 20260905222752 | 76 | 82 | 0.0 | 0.9 | 0.00 | 0.66 | 0.66 | 95 | 1009.8 |
| 20260905222249 | 76 | 82 | 0.0 | 0.9 | 0.00 | 0.66 | 0.66 | 95 | 1009.8 |
| 20260905221748 | 76 | 82 | 0.0 | 0.0 | 0.00 | 0.66 | 0.66 | 95 | 1009.8 |
| 20260905221216 | 76 | 77 | 0.0 | 0.0 | 0.00 | 0.66 | 0.66 | 95 | 1009.8 |
| 20260905220715 | 76 | 77 | 0.0 | 0.0 | 0.00 | 0.66 | 0.66 | 95 | 1009.8 |
| 20260905220214 | 76 | 76 | 0.0 | 0.0 | 0.00 | 0.66 | 0.66 | 95 | 1009.8 |
| 20260905215712 | 76 | 77 | 0.0 | 0.0 | 0.00 | 0.66 | 0.66 | 95 | 1009.8 |
| 20260905215108 | 76 | 76 | 0.0 | 0.0 | 0.00 | 0.66 | 0.66 | 95 | 1009.8 |
| 20260905214606 | 76 | 77 | 0.0 | 0.0 | 0.00 | 0.66 | 0.66 | 95 | 1009.8 |
| 20260905214104 | 76 | 76 | 0.0 | 0.0 | 0.00 | 0.66 | 0.66 | 95 | 1010.2 |
| 20260905213603 | 76 | 77 | 0.0 | 0.0 | 0.00 | 0.66 | 0.66 | 95 | 1010.2 |
| 20260905213102 | 76 | 76 | 0.0 | 0.0 | 0.00 | 0.66 | 0.66 | 95 | 1009.8 |
| 20260905212530 | 75 | 77 | 0.0 | 0.9 | 0.00 | 0.66 | 0.66 | 95 | 1009.8 |
| 20260905212029 | 74 | 77 | 0.0 | 0.9 | 0.00 | 0.66 | 0.66 | 95 | 1010.2 |
| 20260905211528 | 73 | 77 | 0.0 | 0.9 | 0.00 | 0.66 | 0.66 | 95 | 1009.8 |
| 20260905211028 | 73 | 77 | 0.9 | 0.9 | 0.00 | 0.66 | 0.66 | 95 | 1010.2 |
| 20260905210526 | 73 | 68 | 0.0 | 0.0 | 0.00 | 0.66 | 0.66 | 95 | 1010.2 |
| 20260905210026 | 73 | 68 | 0.0 | 0.0 | 0.00 | 0.66 | 0.66 | 95 | 1010.5 |
| 20260905205525 | 73 | 68 | 0.0 | 0.9 | 0.00 | 0.66 | 0.66 | 95 | 1010.8 |
| 20260905205024 | 73 | 68 | 0.0 | 0.9 | 0.00 | 0.66 | 0.66 | 95 | 1010.8 |
| 20260905204523 | 73 | 68 | 0.0 | 0.9 | 0.00 | 0.66 | 0.66 | 95 | 1010.8 |
| 20260905204021 | 73 | 68 | 0.9 | 0.9 | 0.00 | 0.66 | 0.66 | 95 | 1010.5 |
| 20260905203449 | 73 | 65 | 0.0 | 0.9 | 0.00 | 0.66 | 0.66 | 95 | 1010.8 |
| 20260905202916 | 73 | 65 | 0.0 | 0.9 | 0.00 | 0.66 | 0.66 | 95 | 1010.8 |
| 20260905202415 | 73 | 62 | 0.0 | 0.9 | 0.00 | 0.66 | 0.66 | 95 | 1011.2 |
| 20260905201913 | 73 | 62 | 0.0 | 0.9 | 0.00 | 0.66 | 0.66 | 95 | 1011.2 |
| 20260905201413 | 73 | 63 | 0.0 | 0.9 | 0.00 | 0.66 | 0.66 | 95 | 1011.2 |
| 20260905200910 | 73 | 63 | 0.0 | 0.9 | 0.00 | 0.66 | 0.66 | 95 | 1011.2 |
| 20260905200408 | 73 | 78 | 0.0 | 0.0 | 0.00 | 0.66 | 0.66 | 95 | 1011.5 |
| 20260905195805 | 73 | 79 | 0.0 | 0.0 | 0.01 | 0.66 | 0.66 | 95 | 1011.2 |
| 20260905195306 | 73 | 56 | 0.0 | 0.0 | 0.03 | 0.66 | 0.66 | 95 | 1011.2 |
| 20260905194803 | 73 | 57 | 0.0 | 0.0 | 0.09 | 0.66 | 0.66 | 95 | 1011.2 |
| 20260905194301 | 73 | 57 | 0.0 | 0.0 | 0.18 | 0.66 | 0.66 | 95 | 1011.2 |
| 20260905193801 | 73 | 57 | 0.0 | 0.9 | 0.32 | 0.66 | 0.66 | 95 | 1010.8 |
| 20260905193227 | 73 | 250 | 0.0 | 0.9 | 0.42 | 0.66 | 0.66 | 95 | 1010.8 |
| 20260905192726 | 73 | 226 | 0.0 | 0.9 | 0.56 | 0.66 | 0.66 | 95 | 1011.2 |
| 20260905192225 | 72 | 68 | 0.0 | 0.9 | 0.66 | 0.66 | 0.66 | 95 | 1011.2 |
| 20260905191724 | 72 | 250 | 0.0 | 0.0 | 0.66 | 0.66 | 0.66 | 95 | 1011.2 |
| 20260905191222 | 72 | 250 | 0.0 | 0.9 | 0.66 | 0.66 | 0.66 | 95 | 1011.2 |
| 20260905190721 | 72 | 226 | 0.0 | 1.7 | 0.66 | 0.66 | 0.66 | 95 | 1011.2 |
| 20260905190219 | 72 | 225 | 0.0 | 1.7 | 0.66 | 0.66 | 0.66 | 95 | 1011.5 |
| 20260905185718 | 72 | 215 | 0.0 | 2.6 | 0.65 | 0.65 | 0.65 | 94 | 1011.9 |
| 20260905185146 | 73 | 228 | 0.9 | 2.6 | 0.61 | 0.61 | 0.61 | 93 | 1012.2 |
| 20260905184645 | 74 | 84 | 0.9 | 3.5 | 0.55 | 0.55 | 0.55 | 91 | 1012.5 |
| 20260905184144 | 75 | 198 | 0.9 | 8.7 | 0.44 | 0.44 | 0.44 | 89 | 1013.5 |
| 20260905183643 | 77 | 73 | 1.7 | 8.7 | 0.32 | 0.32 | 0.32 | 86 | 1013.5 |
| 20260905183142 | 80 | 187 | 1.7 | 9.6 | 0.20 | 0.20 | 0.20 | 82 | 1013.2 |
| 20260905182609 | 84 | 12 | 2.6 | 9.6 | 0.08 | 0.08 | 0.08 | 78 | 1013.2 |
| 20260905182108 | 86 | 326 | 0.9 | 8.7 | 0.00 | 0.00 | 0.00 | 75 | 1012.9 |
| 20260905181607 | 88 | 51 | 5.2 | 7.8 | 0.00 | 0.00 | 0.00 | 77 | 1011.9 |
| 20260905181106 | 89 | 245 | 0.0 | 0.0 | 0.00 | 0.00 | 0.00 | 74 | 1011.2 |
| 20260905180502 | 90 | 245 | 0.0 | 0.0 | 0.00 | 0.00 | 0.00 | 74 | 1010.8 |
| 20260905180001 | 90 | 245 | 0.0 | 0.0 | 0.00 | 0.00 | 0.00 | 72 | 1010.8 |
| 20260905175459 | 91 | 245 | 0.0 | 0.0 | 0.00 | 0.00 | 0.00 | 71 | 1011.2 |
| 20260905174958 | 91 | 245 | 0.0 | 0.0 | 0.00 | 0.00 | 0.00 | 70 | 1010.5 |
| 20260905174354 | 92 | 245 | 0.0 | 0.0 | 0.00 | 0.00 | 0.00 | 68 | 1010.8 |
| 20260905173853 | 93 | 207 | 0.0 | 0.0 | 0.00 | 0.00 | 0.00 | 67 | 1010.8 |
| 20260905173353 | 93 | 233 | 0.0 | 0.0 | 0.00 | 0.00 | 0.00 | 65 | 1011.2 |
| 20260905172851 | 93 | 200 | 0.0 | 0.0 | 0.00 | 0.00 | 0.00 | 65 | 1011.2 |
| 20260905172350 | 92 | 200 | 0.0 | 0.0 | 0.00 | 0.00 | 0.00 | 65 | 1011.2 |
| 20260905171817 | 92 | 167 | 0.0 | 0.0 | 0.00 | 0.00 | 0.00 | 67 | 1011.2 |
| 20260905171316 | 92 | 186 | 0.0 | 0.0 | 0.00 | 0.00 | 0.00 | 68 | 1011.2 |
| 20260905170815 | 92 | 223 | 0.0 | 0.0 | 0.00 | 0.00 | 0.00 | 70 | 1011.5 |
| 20260905170314 | 91 | 250 | 0.0 | 0.0 | 0.00 | 0.00 | 0.00 | 70 | 1011.5 |
| 20260905165812 | 90 | 253 | 0.0 | 0.0 | 0.00 | 0.00 | 0.00 | 71 | 1011.9 |
| 20260905165311 | 90 | 211 | 0.0 | 0.0 | 0.00 | 0.00 | 0.00 | 70 | 1011.9 |
| 20260905164810 | 90 | 162 | 0.0 | 0.0 | 0.00 | 0.00 | 0.00 | 69 | 1011.9 |
| 20260905164307 | 89 | 149 | 0.0 | 0.0 | 0.00 | 0.00 | 0.00 | 69 | 1011.9 |
| 20260905163806 | 89 | 63 | 0.0 | 0.0 | 0.00 | 0.00 | 0.00 | 73 | 1012.2 |
| 20260905163305 | 89 | 73 | 0.0 | 0.0 | 0.00 | 0.00 | 0.00 | 72 | 1012.2 |
| 20260905162801 | 89 | 221 | 0.0 | 0.0 | 0.00 | 0.00 | 0.00 | 74 | 1012.2 |
| 20260905162258 | 89 | 214 | 0.0 | 0.0 | 0.00 | 0.00 | 0.00 | 73 | 1012.2 |
| 20260905161725 | 89 | 214 | 0.0 | 0.0 | 0.00 | 0.00 | 0.00 | 72 | 1012.2 |
| 20260905161224 | 89 | 218 | 0.0 | 0.0 | 0.00 | 0.00 | 0.00 | 73 | 1012.2 |
| 20260905160723 | 89 | 229 | 0.0 | 0.0 | 0.00 | 0.00 | 0.00 | 73 | 1012.2 |
| 20260905160222 | 90 | 219 | 0.0 | 0.0 | 0.00 | 0.00 | 0.00 | 74 | 1012.2 |
| 20260905155721 | 89 | 219 | 0.0 | 0.0 | 0.00 | 0.00 | 0.00 | 78 | 1012.2 |
| 20260905155220 | 88 | 226 | 0.0 | 0.0 | 0.00 | 0.00 | 0.00 | 76 | 1012.2 |
| 20260905154718 | 87 | 235 | 0.0 | 0.0 | 0.00 | 0.00 | 0.00 | 79 | 1012.2 |
| 20260905154217 | 86 | 145 | 0.0 | 0.0 | 0.00 | 0.00 | 0.00 | 81 | 1012.2 |
| 20260905153716 | 85 | 107 | 0.0 | 0.0 | 0.00 | 0.00 | 0.00 | 82 | 1012.2 |
| 20260905153215 | 85 | 107 | 0.0 | 0.0 | 0.00 | 0.00 | 0.00 | 80 | 1012.2 |
| 20260905152714 | 84 | 71 | 0.0 | 0.0 | 0.00 | 0.00 | 0.00 | 81 | 1012.5 |
| 20260905152111 | 83 | 70 | 0.0 | 0.0 | 0.00 | 0.00 | 0.00 | 85 | 1012.5 |
| 20260905151610 | 83 | 114 | 0.0 | 0.0 | 0.00 | 0.00 | 0.00 | 84 | 1012.5 |
| 20260905151108 | 83 | 117 | 0.0 | 0.0 | 0.00 | 0.00 | 0.00 | 84 | 1012.5 |
| 20260905150502 | 83 | 135 | 0.0 | 0.0 | 0.00 | 0.00 | 0.00 | 86 | 1012.5 |
| 20260905150001 | 83 | 136 | 0.0 | 0.0 | 0.00 | 0.00 | 0.00 | 86 | 1012.5 |
| 20260905145429 | 82 | 136 | 0.0 | 0.0 | 0.00 | 0.00 | 0.00 | 85 | 1012.5 |
| 20260905144856 | 82 | 137 | 0.0 | 0.0 | 0.00 | 0.00 | 0.00 | 85 | 1012.5 |
| 20260905144251 | 82 | 136 | 0.0 | 0.0 | 0.00 | 0.00 | 0.00 | 86 | 1012.5 |
| 20260905143750 | 82 | 136 | 0.0 | 0.0 | 0.00 | 0.00 | 0.00 | 87 | 1012.5 |
| 20260905143248 | 81 | 136 | 0.0 | 0.0 | 0.00 | 0.00 | 0.00 | 86 | 1012.9 |
| 20260905142747 | 81 | 136 | 0.0 | 0.0 | 0.00 | 0.00 | 0.00 | 87 | 1012.9 |
| 20260905142144 | 81 | 88 | 0.0 | 0.0 | 0.00 | 0.00 | 0.00 | 88 | 1012.9 |
| 20260905141643 | 80 | 76 | 0.0 | 0.0 | 0.00 | 0.00 | 0.00 | 88 | 1012.9 |
| 20260905141111 | 80 | 87 | 0.0 | 0.0 | 0.00 | 0.00 | 0.00 | 90 | 1012.5 |
| 20260905140609 | 79 | 84 | 0.0 | 0.0 | 0.00 | 0.00 | 0.00 | 92 | 1012.9 |
| 20260905140108 | 79 | 118 | 0.0 | 0.0 | 0.00 | 0.00 | 0.00 | 95 | 1012.9 |
| 20260905135607 | 78 | 118 | 0.0 | 0.0 | 0.00 | 0.00 | 0.00 | 95 | 1012.9 |
| 20260905135003 | 78 | 120 | 0.0 | 0.0 | 0.00 | 0.00 | 0.00 | 95 | 1012.9 |
| 20260905134431 | 78 | 123 | 0.0 | 0.0 | 0.00 | 0.00 | 0.00 | 95 | 1012.9 |
| 20260905133930 | 77 | 127 | 0.0 | 0.0 | 0.00 | 0.00 | 0.00 | 95 | 1012.9 |
| 20260905133429 | 77 | 127 | 0.0 | 0.0 | 0.00 | 0.00 | 0.00 | 95 | 1012.9 |
| 20260905132927 | 77 | 128 | 0.0 | 0.0 | 0.00 | 0.00 | 0.00 | 95 | 1012.9 |
| 20260905132426 | 77 | 128 | 0.0 | 0.0 | 0.00 | 0.00 | 0.00 | 95 | 1012.9 |
| 20260905131925 | 77 | 128 | 0.0 | 0.0 | 0.00 | 0.00 | 0.00 | 95 | 1012.9 |
| 20260905131424 | 77 | 128 | 0.0 | 0.0 | 0.00 | 0.00 | 0.00 | 95 | 1013.2 |
| 20260905130924 | 76 | 128 | 0.0 | 0.0 | 0.00 | 0.00 | 0.00 | 95 | 1013.2 |
| 20260905130421 | 76 | 129 | 0.0 | 0.0 | 0.00 | 0.00 | 0.00 | 95 | 1012.9 |
| 20260905125847 | 76 | 129 | 0.0 | 0.0 | 0.00 | 0.00 | 0.00 | 95 | 1012.9 |
| 20260905125347 | 76 | 129 | 0.0 | 0.0 | 0.00 | 0.00 | 0.00 | 95 | 1013.2 |
| 20260905124846 | 76 | 58 | 0.0 | 0.0 | 0.00 | 0.00 | 0.00 | 95 | 1013.2 |
| 20260905124344 | 76 | 58 | 0.0 | 0.0 | 0.00 | 0.00 | 0.00 | 95 | 1013.2 |
| 20260905123843 | 76 | 58 | 0.0 | 0.0 | 0.00 | 0.00 | 0.00 | 95 | 1013.2 |
| 20260905123342 | 75 | 58 | 0.0 | 0.0 | 0.00 | 0.00 | 0.00 | 95 | 1013.2 |
| 20260905122841 | 75 | 58 | 0.0 | 0.0 | 0.00 | 0.00 | 0.00 | 95 | 1013.2 |
| 20260905122339 | 75 | 58 | 0.0 | 0.0 | 0.00 | 0.00 | 0.00 | 95 | 1013.2 |
| 20260905121838 | 74 | 58 | 0.0 | 0.0 | 0.00 | 0.00 | 0.00 | 95 | 1012.9 |
| 20260905121306 | 74 | 58 | 0.0 | 0.0 | 0.00 | 0.00 | 0.00 | 95 | 1012.9 |
| 20260905120805 | 74 | 58 | 0.0 | 0.0 | 0.00 | 0.00 | 0.00 | 95 | 1012.9 |
| 20260905120233 | 73 | 58 | 0.0 | 0.0 | 0.00 | 0.00 | 0.00 | 95 | 1012.9 |
| 20260905115732 | 73 | 58 | 0.0 | 0.0 | 0.00 | 0.00 | 0.00 | 95 | 1012.9 |
| 20260905115230 | 73 | 58 | 0.0 | 0.0 | 0.00 | 0.00 | 0.00 | 95 | 1012.9 |
| 20260905114729 | 73 | 58 | 0.0 | 0.0 | 0.00 | 0.00 | 0.00 | 95 | 1012.5 |
| 20260905114228 | 73 | 58 | 0.0 | 0.0 | 0.00 | 0.00 | 0.00 | 95 | 1012.5 |